TimePDT,TemperatureF,Dew PointF,Humidity,Sea Level PressureIn,VisibilityMPH,Wind Direction,Wind SpeedMPH,Gust SpeedMPH,PrecipitationIn,Events,Conditions,WindDirDegrees,DateUTC
12:53 AM,36.0,23.0,59,30.38,10.0,Calm,Calm,-,N/A,,Clear,0,2013-04-23 07:53:00
1:53 AM,34.0,25.0,70,30.37,10.0,Calm,Calm,-,N/A,,Clear,0,2013-04-23 08:53:00
2:53 AM,32.0,21.9,66,30.36,10.0,Calm,Calm,-,N/A,,Clear,0,2013-04-23 09:53:00
3:53 AM,30.0,21.9,72,30.35,10.0,Calm,Calm,-,N/A,,Clear,0,2013-04-23 10:53:00
4:53 AM,30.9,24.1,76,30.34,10.0,NE,3.5,-,N/A,,Clear,50,2013-04-23 11:53:00
5:53 AM,32.0,23.0,69,30.33,10.0,North,3.5,-,N/A,,Clear,10,2013-04-23 12:53:00
6:53 AM,32.0,23.0,69,30.32,10.0,NE,4.6,-,N/A,,Clear,50,2013-04-23 13:53:00
7:53 AM,36.0,24.1,62,30.33,10.0,NE,3.5,-,N/A,,Clear,50,2013-04-23 14:53:00
8:53 AM,41.0,26.1,55,30.33,10.0,Calm,Calm,-,N/A,,Mostly Cloudy,0,2013-04-23 15:53:00
9:53 AM,44.1,23.0,43,30.32,10.0,Calm,Calm,-,N/A,,Scattered Clouds,0,2013-04-23 16:53:00
10:53 AM,46.9,25.0,42,30.32,10.0,SSW,9.2,-,N/A,,Mostly Cloudy,200,2013-04-23 17:53:00
11:53 AM,50.0,25.0,38,30.30,10.0,SSW,6.9,-,N/A,,Scattered Clouds,200,2013-04-23 18:53:00
12:53 PM,52.0,24.1,34,30.28,10.0,Variable,3.5,-,N/A,,Partly Cloudy,0,2013-04-23 19:53:00
1:53 PM,55.0,24.1,30,30.26,10.0,Calm,Calm,-,N/A,,Scattered Clouds,0,2013-04-23 20:53:00
2:53 PM,55.9,21.9,27,30.25,10.0,SW,5.8,-,N/A,,Scattered Clouds,220,2013-04-23 21:53:00
3:53 PM,57.0,19.9,24,30.23,10.0,Calm,Calm,-,N/A,,Scattered Clouds,0,2013-04-23 22:53:00
4:53 PM,57.9,24.1,27,30.22,10.0,Variable,3.5,-,N/A,,Scattered Clouds,0,2013-04-23 23:53:00
5:53 PM,55.9,23.0,28,30.22,10.0,Calm,Calm,-,N/A,,Scattered Clouds,0,2013-04-24 00:53:00
6:53 PM,54.0,26.1,34,30.23,10.0,NNW,3.5,-,N/A,,Scattered Clouds,330,2013-04-24 01:53:00
7:53 PM,48.0,32.0,54,30.23,10.0,Calm,Calm,-,N/A,,Partly Cloudy,0,2013-04-24 02:53:00
8:53 PM,43.0,28.9,58,30.24,10.0,Calm,Calm,-,N/A,,Clear,0,2013-04-24 03:53:00
9:53 PM,41.0,30.0,65,30.25,10.0,Calm,Calm,-,N/A,,Clear,0,2013-04-24 04:53:00
10:53 PM,39.0,30.0,70,30.26,10.0,Calm,Calm,-,N/A,,Clear,0,2013-04-24 05:53:00
11:53 PM,39.0,30.0,70,30.26,10.0,Calm,Calm,-,N/A,,Clear,0,2013-04-24 06:53:00